Claremore, OK

4:51 PM CDT on May 29, 2017 (GMT -0500)
Claremore Regional

Weather History for KGCM - August, 2013

Change the Weather History Date:

Wednesday, August 7, 2013

  Actual Average (KTUL) Record (KTUL)
Temperature  
Mean Temperature 83 °F -  
Max Temperature 89 °F 93 °F 109 °F (1935)
Min Temperature 77 °F 71 °F 58 °F (1993)
Cooling Degree Days 18    
Growing Degree Days 33 (Base 50)    
Moisture  
Dew Point 73 °F    
Average Humidity 77    
Maximum Humidity 89    
Minimum Humidity 62    
Precipitation  
Precipitation 0.13 in - - ()
Sea Level Pressure  
Sea Level Pressure 29.89 in    
Wind  
Wind Speed 7 mph (East)    
Max Wind Speed 17 mph    
Max Gust Speed 23 mph    
Visibility 10 miles    
Events Rain , Thunderstorm    
Averages and records for this station are not official NWS values.
T = Trace of Precipitation, MM = Missing Value Source: NWS Daily Summary

Daily Weather History Graph

Daily Weather History Graph

Search for Another Location

Airport or City:

Trip Planner

Search our weather history database for the weather conditions in past years. The results will help you decide how hot, cold, wet, or windy it might be!

Date:

Astronomy

Aug. 07, 2013 Rise Set
Actual Time 6:33 AM CDT 8:21 PM CDT
Civil Twilight 6:05 AM CDT 8:48 PM CDT
Nautical Twilight 5:32 AM CDT 9:22 PM CDT
Astronomical Twilight 4:56 AM CDT 9:58 PM CDT
Moon 7:19 AM CDT (8/7) 8:33 PM CDT (8/7)
Length of Visible Light 14h 43m
Length of Day
13h 47m
New Moon, 1% of the Moon is Illuminated
Aug 7
New Moon
Aug 14
First Quarter
Aug 20
Full
Aug 28
Last Quarter
Sep 5
New

Hourly Weather History & Observations

Time (CDT) Temp. Heat Index Dew Point Humidity Pressure Visibility Wind Dir Wind Speed Gust Speed Precip Events Conditions
12:15 AM 80.6 °F 85.4 °F 73.4 °F 79% 29.86 in 10.0 mi South 6.9 mph - N/A   Clear
12:35 AM 80.6 °F 85.4 °F 73.4 °F 79% 29.86 in 10.0 mi SSE 6.9 mph - N/A   Clear
12:55 AM 80.6 °F 84.6 °F 71.6 °F 74% 29.86 in 10.0 mi South 5.8 mph - N/A   Clear
1:15 AM 80.6 °F 84.6 °F 71.6 °F 74% 29.86 in 10.0 mi South 6.9 mph - N/A   Clear
1:35 AM 80.6 °F 84.6 °F 71.6 °F 74% 29.86 in 10.0 mi SSE 5.8 mph - N/A   Clear
1:55 AM 80.6 °F 84.6 °F 71.6 °F 74% 29.85 in 10.0 mi South 6.9 mph - N/A   Clear
2:15 AM 80.6 °F 84.6 °F 71.6 °F 74% 29.85 in 10.0 mi South 8.1 mph - N/A   Clear
2:35 AM 80.6 °F 84.6 °F 71.6 °F 74% 29.85 in 10.0 mi South 6.9 mph - N/A   Clear
2:55 AM 80.6 °F 84.6 °F 71.6 °F 74% 29.89 in 10.0 mi WNW 17.3 mph 23.0 mph N/A   Scattered Clouds
3:15 AM 82.4 °F 87.2 °F 71.6 °F 70% 29.89 in 10.0 mi West 6.9 mph 13.8 mph N/A   Scattered Clouds
3:35 AM 80.6 °F 84.6 °F 71.6 °F 74% 29.87 in 10.0 mi SSE 3.5 mph - N/A   Clear
3:55 AM 78.8 °F - 71.6 °F 78% 29.87 in 10.0 mi Calm Calm - N/A   Clear
4:15 AM 78.8 °F - 71.6 °F 78% 29.86 in 10.0 mi Calm Calm - N/A   Clear
4:35 AM 77.0 °F - 71.6 °F 83% 29.86 in 10.0 mi SE 3.5 mph - N/A   Clear
4:55 AM 77.0 °F - 71.6 °F 83% 29.87 in 10.0 mi Calm Calm - N/A   Clear
5:15 AM 77.0 °F - 71.6 °F 83% 29.87 in 10.0 mi East 4.6 mph - N/A   Clear
5:35 AM 77.0 °F - 71.6 °F 83% 29.86 in 10.0 mi SE 4.6 mph - N/A   Clear
5:55 AM 77.0 °F - 71.6 °F 83% 29.85 in 10.0 mi SE 9.2 mph - N/A   Clear
6:15 AM 77.0 °F - 71.6 °F 83% 29.85 in 10.0 mi SE 8.1 mph - N/A   Clear
6:35 AM 77.0 °F - 71.6 °F 83% 29.86 in 10.0 mi ESE 3.5 mph - N/A   Scattered Clouds
6:55 AM 77.0 °F - 71.6 °F 83% 29.88 in 10.0 mi ENE 3.5 mph - N/A Thunderstorm Clear
7:15 AM 77.0 °F - 71.6 °F 83% 29.89 in 10.0 mi North 5.8 mph - N/A   Clear
7:35 AM 77.0 °F - 71.6 °F 83% 29.89 in 10.0 mi NE 6.9 mph - N/A Thunderstorm Clear
7:55 AM 77.0 °F - 71.6 °F 83% 29.89 in 10.0 mi ENE 8.1 mph - N/A   Clear
8:15 AM 77.0 °F - 71.6 °F 83% 29.90 in 10.0 mi ENE 6.9 mph - N/A Thunderstorm Clear
8:35 AM 77.0 °F - 71.6 °F 83% 29.91 in 10.0 mi East 6.9 mph - N/A   Clear
8:55 AM 78.8 °F - 71.6 °F 78% 29.91 in 10.0 mi East 8.1 mph - N/A   Clear
9:15 AM 78.8 °F - 73.4 °F 83% 29.91 in 10.0 mi East 11.5 mph - N/A   Scattered Clouds
9:35 AM 78.8 °F - 73.4 °F 83% 29.91 in 10.0 mi East 11.5 mph 16.1 mph N/A   Clear
9:55 AM 80.6 °F 85.4 °F 73.4 °F 79% 29.92 in 10.0 mi East 13.8 mph - N/A   Clear
10:15 AM 80.6 °F 85.4 °F 73.4 °F 79% 29.92 in 10.0 mi East 12.7 mph - N/A   Clear
10:35 AM 82.4 °F 88.2 °F 73.4 °F 74% 29.93 in 10.0 mi East 8.1 mph - N/A   Clear
10:55 AM 80.6 °F 85.4 °F 73.4 °F 79% 29.95 in 10.0 mi NNE 6.9 mph - N/A Thunderstorm Clear
11:15 AM 82.4 °F 88.2 °F 73.4 °F 74% 29.95 in 10.0 mi NE 6.9 mph - N/A   Clear
11:35 AM 82.4 °F 88.2 °F 73.4 °F 74% 29.93 in 10.0 mi ENE 10.4 mph - N/A   Clear
11:55 AM 86.0 °F 95.1 °F 75.2 °F 70% 29.93 in 10.0 mi East 11.5 mph 17.3 mph N/A   Clear
12:15 PM 86.0 °F 93.4 °F 73.4 °F 66% 29.92 in 10.0 mi East 15.0 mph - N/A   Clear
12:35 PM 87.8 °F 97.6 °F 75.2 °F 66% 29.92 in 10.0 mi East 10.4 mph 17.3 mph N/A   Clear
12:55 PM 86.0 °F 91.8 °F 71.6 °F 62% 29.92 in 10.0 mi ESE 12.7 mph - N/A   Clear
1:15 PM 87.8 °F 95.6 °F 73.4 °F 62% 29.93 in 10.0 mi East 11.5 mph - N/A   Clear
1:35 PM 86.0 °F 93.4 °F 73.4 °F 66% 29.93 in 10.0 mi East 6.9 mph - N/A   Clear
1:55 PM 87.8 °F 95.6 °F 73.4 °F 62% 29.91 in 10.0 mi East 10.4 mph - N/A   Clear
2:15 PM 86.0 °F 93.4 °F 73.4 °F 66% 29.91 in 10.0 mi East 8.1 mph - N/A   Clear
2:35 PM 86.0 °F 93.4 °F 73.4 °F 66% 29.90 in 10.0 mi East 10.4 mph - N/A   Clear
2:55 PM 86.0 °F 93.4 °F 73.4 °F 66% 29.91 in 10.0 mi SE 3.5 mph - N/A   Clear
3:15 PM 86.0 °F 96.9 °F 77.0 °F 74% 29.89 in 7.0 mi East 5.8 mph - N/A Rain Light Rain
3:35 PM 86.0 °F 96.9 °F 77.0 °F 74% 29.90 in 5.0 mi South 3.5 mph - 0.03 in Rain Heavy Rain
3:55 PM 82.4 °F 90.9 °F 77.0 °F 84% 29.88 in 3.0 mi SE 16.1 mph - 0.13 in Rain Light Rain
4:15 PM 86.0 °F 95.1 °F 75.2 °F 70% 29.88 in 10.0 mi ESE 12.7 mph - N/A   Scattered Clouds
4:35 PM 86.0 °F 96.9 °F 77.0 °F 74% 29.88 in 10.0 mi ESE 9.2 mph - N/A   Clear
4:55 PM 86.0 °F 96.9 °F 77.0 °F 74% 29.87 in 10.0 mi ESE 5.8 mph - N/A   Clear
5:15 PM 89.6 °F 102.2 °F 77.0 °F 66% 29.88 in 10.0 mi NE 3.5 mph - N/A   Clear
5:35 PM 86.0 °F 96.9 °F 77.0 °F 74% 29.89 in 10.0 mi North 3.5 mph - N/A   Clear
5:55 PM 84.2 °F 94.1 °F 77.0 °F 79% 29.88 in 10.0 mi NE 4.6 mph - N/A   Clear
6:15 PM 82.4 °F 90.9 °F 77.0 °F 84% 29.89 in 10.0 mi NNE 6.9 mph - N/A Rain Light Rain
6:35 PM 82.4 °F 90.9 °F 77.0 °F 84% 29.89 in 10.0 mi NE 6.9 mph - N/A   Scattered Clouds
6:55 PM 82.4 °F 89.5 °F 75.2 °F 79% 29.88 in 10.0 mi NE 8.1 mph - N/A   Clear
7:15 PM 84.2 °F 92.3 °F 75.2 °F 74% 29.89 in 10.0 mi NE 8.1 mph - N/A Thunderstorm Thunderstorm
7:35 PM 80.6 °F 86.2 °F 75.2 °F 84% 29.88 in 10.0 mi NE 10.4 mph - N/A   Clear
7:55 PM 80.6 °F 85.4 °F 73.4 °F 79% 29.88 in 10.0 mi NE 10.4 mph - N/A   Clear
8:15 PM 78.8 °F - 75.2 °F 89% 29.88 in 10.0 mi NE 10.4 mph - N/A   Clear
8:35 PM 78.8 °F - 75.2 °F 89% 29.89 in 10.0 mi ENE 8.1 mph - N/A   Clear
8:55 PM 78.8 °F - 73.4 °F 83% 29.89 in 10.0 mi ENE 11.5 mph - N/A   Scattered Clouds
9:15 PM 78.8 °F - 73.4 °F 83% 29.90 in 10.0 mi ENE 9.2 mph 13.8 mph N/A   Clear
9:35 PM 78.8 °F - 73.4 °F 83% 29.90 in 10.0 mi ENE 9.2 mph 18.4 mph N/A   Clear
9:55 PM 78.8 °F - 73.4 °F 83% 29.91 in 10.0 mi NE 10.4 mph - N/A   Clear
10:15 PM 77.0 °F - 73.4 °F 89% 29.91 in 10.0 mi ENE 10.4 mph - N/A   Clear
10:35 PM 78.8 °F - 73.4 °F 83% 29.92 in 10.0 mi ENE 11.5 mph - N/A   Clear
10:55 PM 78.8 °F - 71.6 °F 78% 29.92 in 10.0 mi ENE 9.2 mph - N/A   Clear
11:15 PM 77.0 °F - 71.6 °F 83% 29.91 in 10.0 mi ENE 9.2 mph - N/A   Clear
11:35 PM 77.0 °F - 71.6 °F 83% 29.91 in 10.0 mi ENE 8.1 mph - N/A   Clear
11:55 PM 77.0 °F - 71.6 °F 83% 29.90 in 10.0 mi ENE 9.2 mph - N/A   Clear